Montgomery, NY

2:14 AM EST on November 15, 2019 (GMT -0500)
Orange County

Weather History for KMGJ - October, 2019

Change the Weather History Date:

Wednesday, October 23, 2019

  Actual Average (KSWF) Record (KSWF)
Temperature  
Mean Temperature 52 °F -  
Max Temperature 63 °F 56 °F 86 °F (1979)
Min Temperature 39 °F 37 °F 18 °F (1982)
Degree Days  
Heating Degree Days 13    
Growing Degree Days 2 (Base 50)    
Moisture  
Dew Point 44 °F    
Average Humidity 75    
Maximum Humidity 100    
Minimum Humidity 32    
Precipitation  
Precipitation 0.11 in - - ()
Sea Level Pressure  
Sea Level Pressure 29.92 in    
Wind  
Wind Speed 6 mph (West)    
Max Wind Speed 16 mph    
Max Gust Speed 24 mph    
Visibility 9 miles    
Events Rain    
Averages and records for this station are not official NWS values.
T = Trace of Precipitation, MM = Missing Value Source: NWS Daily Summary

Daily Weather History Graph

Daily Weather History Graph

Search for Another Location

Airport or City:

Astronomy

Oct. 23, 2019 Rise Set
Actual Time 7:17 AM EDT 6:04 PM EDT
Civil Twilight 6:49 AM EDT 6:32 PM EDT
Nautical Twilight 6:17 AM EDT 7:04 PM EDT
Astronomical Twilight 5:45 AM EDT 7:36 PM EDT
Moon 1:27 AM EDT (10/23) 3:58 PM EDT (10/23)
Length of Visible Light 11h 42m
Length of Day
10h 46m
Waning Crescent, 27% of the Moon is Illuminated
Oct 23
Waning Crescent
Oct 27
New
Nov 4
First Quarter
Nov 12
Full
Nov 19
Last Quarter

Hourly Weather History & Observations

Time (EDT) Temp. Windchill Dew Point Humidity Pressure Visibility Wind Dir Wind Speed Gust Speed Precip Events Conditions
12:16 AM 55.9 °F - 55.0 °F 97% 29.79 in 4.0 mi NW 9.2 mph - 0.05 in Rain Light Rain
12:54 AM 55.9 °F - 55.0 °F 97% 29.79 in 4.0 mi Variable 3.5 mph - 0.07 in Rain Light Rain
1:33 AM 55.0 °F - 55.0 °F 100% 29.79 in 5.0 mi Calm Calm - 0.04 in Rain Light Rain
1:54 AM 55.0 °F - 55.0 °F 100% 29.80 in 10.0 mi South 4.6 mph - 0.04 in Rain Light Rain
2:54 AM 55.0 °F - 55.0 °F 100% 29.79 in 10.0 mi Calm Calm - 0.00 in   Overcast
3:54 AM 54.0 °F - 53.1 °F 97% 29.78 in 10.0 mi West 5.8 mph - N/A   Mostly Cloudy
4:54 AM 51.1 °F - 50.0 °F 96% 29.80 in 10.0 mi West 4.6 mph - N/A   Clear
5:54 AM 52.0 °F - 50.0 °F 93% 29.81 in 10.0 mi West 6.9 mph - N/A   Clear
6:54 AM 48.9 °F - 48.0 °F 97% 29.84 in 10.0 mi West 4.6 mph - N/A   Clear
7:39 AM 44.1 °F 41.5 °F 44.1 °F 100% 29.85 in 2.5 mi West 4.6 mph - N/A   Clear
7:47 AM 45.0 °F 42.6 °F 45.0 °F 100% 29.86 in 7.0 mi West 4.6 mph - N/A   Clear
7:54 AM 46.0 °F 44.8 °F 46.0 °F 100% 29.86 in 10.0 mi West 3.5 mph - N/A   Clear
8:54 AM 53.1 °F - 50.0 °F 89% 29.89 in 10.0 mi SW 4.6 mph - N/A   Clear
9:54 AM 57.0 °F - 45.0 °F 64% 29.91 in 10.0 mi WNW 6.9 mph - N/A   Clear
10:54 AM 59.0 °F - 45.0 °F 60% 29.92 in 10.0 mi NW 11.5 mph - N/A   Scattered Clouds
11:54 AM 59.0 °F - 43.0 °F 55% 29.93 in 10.0 mi WNW 6.9 mph 16.1 mph N/A   Partly Cloudy
12:54 PM 63.0 °F - 37.9 °F 40% 29.93 in 10.0 mi WNW 16.1 mph 24.2 mph N/A   Mostly Cloudy
1:54 PM 62.1 °F - 35.1 °F 37% 29.93 in 10.0 mi West 13.8 mph - N/A   Clear
2:54 PM 63.0 °F - 34.0 °F 34% 29.93 in 10.0 mi Variable 6.9 mph 18.4 mph N/A   Clear
3:54 PM 62.1 °F - 32.0 °F 32% 29.94 in 10.0 mi West 13.8 mph 19.6 mph N/A   Clear
4:54 PM 62.1 °F - 33.1 °F 34% 29.96 in 10.0 mi West 9.2 mph 18.4 mph N/A   Clear
5:54 PM 57.9 °F - 33.1 °F 39% 30.01 in 10.0 mi West 5.8 mph - N/A   Clear
6:54 PM 51.1 °F - 37.0 °F 59% 30.04 in 10.0 mi West 4.6 mph - N/A   Clear
7:54 PM 44.1 °F 41.5 °F 37.0 °F 76% 30.07 in 10.0 mi West 4.6 mph - N/A   Clear
8:54 PM 46.0 °F 43.1 °F 36.0 °F 68% 30.10 in 10.0 mi WSW 5.8 mph - N/A   Clear
9:54 PM 43.0 °F 40.3 °F 37.9 °F 82% 30.13 in 10.0 mi SW 4.6 mph - N/A   Clear
10:54 PM 41.0 °F - 36.0 °F 82% 30.15 in 10.0 mi Calm Calm - N/A   Clear
11:54 PM 39.9 °F - 36.0 °F 86% 30.16 in 10.0 mi Calm Calm - N/A   Clear